Location: Irma
(52.9170°N, 111.2330°W)
Time: 11:11:12
(UTC-06:00)

Cosmos 1633 Rocket - Visible Passes

Search period start: 03 August 2015 00:00
Search period end: 13 August 2015 00:00
Orbit: 607 x 625 km, 82.5° (Epoch: 02 August)

Date Brightness Start Highest point End Pass type
(mag) Time Alt. Az. Time Alt. Az. Time Alt. Az.
03 Aug 5.2 02:56:04 10° NNE 02:59:34 23° ENE 03:03:06 10° ESE visible
03 Aug 3.3 04:33:28 10° NNW 04:37:41 48° W 04:41:51 10° SSW visible
04 Aug 4.5 03:12:16 10° N 03:16:18 36° ENE 03:20:21 10° SE visible
04 Aug 4.0 04:50:16 10° NNW 04:54:04 29° W 04:57:48 10° SSW visible
05 Aug 3.5 03:28:38 10° N 03:32:57 59° ENE 03:37:14 10° SSE visible
05 Aug 4.6 05:07:20 10° NW 05:10:24 18° W 05:13:19 10° SW visible
06 Aug 5.7 02:08:28 10° NNE 02:10:58 15° ENE 02:13:36 10° E visible
06 Aug 3.0 03:45:07 10° NNW 03:49:30 83° W 03:53:09 14° S visible
07 Aug 5.2 02:24:22 10° NNE 02:27:49 23° ENE 02:31:20 10° ESE visible
07 Aug 3.3 04:01:44 10° NNW 04:05:58 49° W 04:09:02 17° SSW visible
08 Aug 4.4 02:40:33 10° N 02:44:34 35° ENE 02:47:53 14° SE visible
08 Aug 4.0 04:18:31 10° NNW 04:22:21 30° W 04:24:57 17° SW visible
09 Aug 3.5 02:56:54 10° N 03:01:13 58° ENE 03:03:51 22° SSE visible
09 Aug 4.6 04:35:34 10° NW 04:38:40 19° W 04:40:55 13° WSW visible
10 Aug 5.6 01:36:47 10° NNE 01:39:13 15° ENE 01:41:48 10° E visible
10 Aug 2.9 03:13:23 10° NNW 03:17:46 85° W 03:19:50 31° S visible
10 Aug 5.1 04:53:19 10° WNW 04:54:55 12° W 04:56:19 10° W visible
11 Aug 5.1 01:52:39 10° NNE 01:56:05 22° ENE 01:58:47 14° ESE visible
11 Aug 3.3 03:30:00 10° NNW 03:34:14 50° W 03:35:51 32° SSW visible
12 Aug 4.3 02:08:49 10° N 02:12:49 35° ENE 02:14:50 23° ESE visible
12 Aug 4.0 03:46:47 10° NNW 03:50:37 31° W 03:51:54 26° WSW visible
